Orbital Elements at Epoch 2459200.5 (2020-Dec-17.0) TDB
Reference: JPL 18 (heliocentric ecliptic J2000)
Element | Value | Uncertainty (1-sigma) | Units |
e | .2048800656304685 | 4.2809e-08 | |
a | 2.597252182310337 | 1.3469e-08 | au |
q | 2.065126984739718 | 1.1347e-07 | au |
i | 6.064541890645778 | 4.5384e-06 | deg |
node | 263.0059705616728 | 4.2872e-05 | deg |
peri | 71.75723949260264 | 4.4616e-05 | deg |
M | 161.5188045645673 | 1.5446e-05 | deg |
tp | 2458514.553574170512 (2019-Jan-31.05357417) | 6.1816e-05 | TDB |
period | 1528.866647845335 4.19 | 1.1893e-05 3.256e-08 | d yr |
n | .2354685416856701 | 1.8317e-09 | deg/d |
Q | 3.129377379880957 | 1.6229e-08 | au |
|
| | Orbit Determination Parameters
Additional Information
|